User: anonymous   Login
Location: Myrnam
(53.6612°N, 111.2289°W)
Time: 09:14:44
(UTC+00:00)
Language:

XW-2C - Orbit

View from above orbital plane
View from above orbital plane
View from above satellite
View from above satellite

Ground track
Ground track

The orbit data is extracted from the following two-line orbital elements,

1 40906U 15049H   23335.96738283  .00028621  00000-0  92409-3 0  9996
2 40906  97.4911 344.2583 0008281 296.7272  63.3122 15.32051417454037
Epoch (UTC): 01 December 2023 23:13:01
Eccentricity: 0.0008281
inclination: 97.4911°
perigee height: 464 km
apogee height: 475 km
right ascension of ascending node: 344.2583°
argument of perigee: 296.7272°
revolutions per day: 15.32051417
mean anomaly at epoch: 63.3122°
orbit number at epoch: 45403

The dashed part of the orbit path shows where the satellite is in the earth's shadow,  

DLR